This demonstration page uses our WeatherBlox Daily Observations layout. Learn more.

Left ArrowRight Arrow

Hourly Observations for December 28, 2019

Temp ( °F °C ) Dew Point ( °F °C ) Humidity (%) Winds ( mph kmh ) Pressure ( in mb ) Visibility ( mi km ) Precip ( " mm )
12:23 am 00:23 Cloudy with Light Wintry Mix 30 -1 30 -1 100 100 E 10 17 29.96 1015 7 11 0.00 0.00
12:56 am 00:56 Cloudy with Light Wintry Mix 32 0 31 -0.6 96 96 E 6 9 29.90 1012 6 10 0.00 0.00
1:56 am 01:56 Cloudy with Light Wintry Mix 32 0 31 -0.6 96 96 ENE 6 9 29.87 1012 4 6 0.08 2.03
2:21 am 02:21 Cloudy with Light Wintry Mix 32 0 30 -1 93 93 E 8 13 29.91 1013 3 5 0.04 1.02
2:44 am 02:44 Cloudy with Light Snow 32 0 30 -1 93 93 E 5 7 29.91 1013 4 6 0.07 1.78
2:56 am 02:56 Cloudy with Light Snow 32 0 31 -0.6 96 96 E 3 6 29.87 1011 4 6 0.08 2.03
3:40 am 03:40 Cloudy with Light Wintry Mix 32 0 30 -1 93 93 NW 3 6 29.89 1012 9 14 0.01 0.25
3:56 am 03:56 Cloudy 32 0 31 -0.6 96 96 NNW 3 6 29.85 1011 10 16 0.01 0.25
4:56 am 04:56 Cloudy with Mist and Fog 32 0 31 -0.6 96 96 E 6 9 29.82 1010 6 10 0.00 0.00
5:27 am 05:27 Cloudy with Light Wintry Mix 32 0 30 -1 93 93 ENE 15 24 29.82 1010 2 3 0.00 0.00
5:39 am 05:39 Cloudy with Light Wintry Mix 32 0 30 -1 93 93 VRB 7 11 29.85 1011 1 2 0.00 0.00
5:51 am 05:51 Cloudy N/A N/A N/A N 5 7 N/A 1 2 0.00 0.00
5:56 am 05:56 Cloudy with Mist and Fog N/A N/A N/A N 6 9 N/A 1 2 0.00 0.00
6:05 am 06:05 Cloudy with Mist and Fog N/A N/A N/A NNE 7 11 N/A 1 1 0.00 0.00
6:19 am 06:19 Cloudy with Fog N/A N/A N/A N 6 9 N/A 1 1 0.00 0.00
6:56 am 06:56 Cloudy with Light Wintry Mix 32 0 31 -0.6 96 96 NNE 8 13 29.80 1009 1 1 0.00 0.00
7:45 am 07:45 Cloudy with Light Wintry Mix 32 0 32 0 100 100 NE 6 9 29.82 1010 0 0 0.00 0.00
7:56 am 07:56 Cloudy with Light Wintry Mix 32 0 32 0 100 100 NNE 6 9 29.78 1008 0 0 0.00 0.00
8:56 am 08:56 Cloudy with Light Wintry Mix 32 0 32 0 100 100 NE 8 13 29.77 1008 0 0 0.00 0.00
9:56 am 09:56 Cloudy with Light Wintry Mix 32 0 32 0 100 100 N 6 9 29.79 1009 0 0 0.00 0.00
10:40 am 10:40 Cloudy with Light Wintry Mix 32 0 32 0 100 100 N 8 13 29.83 1010 1 1 0.00 0.00
10:56 am 10:56 Cloudy with Light Wintry Mix 33 0.6 32 0 96 96 N 8 13 29.78 1008 1 1 0.00 0.00
11:12 am 11:12 Cloudy with Light Wintry Mix 34 1 32 0 93 93 N 8 13 29.81 1010 1 2 0.00 0.00
11:36 am 11:36 Cloudy with Light Wintry Mix 34 1 34 1 100 100 N 7 11 29.81 1010 1 2 0.00 0.00
11:56 am 11:56 Cloudy with Mist and Fog 33 0.6 33 0.6 100 100 NNW 7 11 29.76 1008 2 3 0.00 0.00
12:21 pm 12:21 Cloudy with Light Wintry Mix 34 1 34 1 100 100 N 10 17 29.77 1008 1 2 0.00 0.00
12:36 pm 12:36 Cloudy with Light Wintry Mix 34 1 34 1 100 100 N 10 17 29.76 1008 1 2 0.00 0.00
12:56 pm 12:56 Cloudy with Light Rain 35 1.7 34 1.1 96 96 N 12 19 29.70 1006 2 2 0.00 0.00
1:09 pm 13:09 Cloudy with Mist and Fog 36 2 34 1 93 93 N 10 17 29.73 1007 3 4 0.00 0.00
1:19 pm 13:19 Cloudy with Mist and Fog 36 2 34 1 93 93 NNW 10 17 29.73 1007 4 6 0.00 0.00
1:56 pm 13:56 Cloudy with Mist and Fog 34 1.1 34 1.1 100 100 N 13 20 29.69 1005 3 4 0.00 0.00
2:19 pm 14:19 Cloudy with Mist and Fog 34 1 34 1 100 100 N 14 22 29.71 1006 3 5 0.00 0.00
2:56 pm 14:56 Cloudy with Light Rain 35 1.7 34 1.1 96 96 N 14 22 29.67 1005 4 6 0.00 0.00
3:29 pm 15:29 Cloudy 36 2 34 1 93 93 N 17 28 29.68 1005 10 16 0.00 0.00
3:56 pm 15:56 Cloudy 35 1.7 34 1.1 96 96 N 15 24 29.65 1004 10 16 0.00 0.00
4:56 pm 16:56 Cloudy 34 1.1 33 0.6 97 97 N 16 26 29.66 1005 10 16 0.00 0.00
5:56 pm 17:56 Cloudy 33 0.6 32 0 96 96 N 16 26 29.69 1006 10 16 0.00 0.00
6:56 pm 18:56 Cloudy with Light Snow 33 0.6 32 0 96 96 N 15 24 29.65 1004 4 6 0.04 1.02
7:14 pm 19:14 Cloudy with Light Snow 32 0 32 0 100 100 NNW 15 24 29.71 1006 4 6 0.03 0.76
7:40 pm 19:40 Cloudy with Light Snow 32 0 30 -1 93 93 N 17 28 29.69 1005 2 3 0.04 1.02
7:56 pm 19:56 Cloudy with Light Snow 32 0 31 -0.6 96 96 N 18 30 29.63 1004 4 6 0.04 1.02
8:06 pm 20:06 Windy with Snow Likely 32 0 30 -1 93 93 N 21 33 29.67 1005 4 6 0.02 0.51
8:56 pm 20:56 Cloudy with Light Snow 32 0 31 -0.6 96 96 NNW 17 28 29.63 1004 3 5 0.06 1.52
9:09 pm 21:09 Cloudy with Light Snow 32 0 30 -1 93 93 NNW 18 30 29.69 1005 3 4 0.01 0.25
9:22 pm 21:22 Cloudy with Light Snow 32 0 30 -1 93 93 NNW 18 30 29.69 1005 2 3 0.01 0.25
9:29 pm 21:29 Cloudy with Light Snow 32 0 30 -1 93 93 NNW 17 28 29.68 1005 1 2 0.01 0.25
9:40 pm 21:40 Cloudy with Light Snow 32 0 30 -1 93 93 N 18 30 29.68 1005 1 1 0.01 0.25
9:52 pm 21:52 Cloudy with Light Snow 30 -1 30 -1 100 100 N 16 26 29.70 1006 1 2 0.01 0.25
9:56 pm 21:56 Cloudy with Light Snow 31 -0.6 31 -0.6 100 100 N 15 24 29.65 1004 1 2 0.01 0.25
10:25 pm 22:25 Cloudy with Light Snow 30 -1 30 -1 100 100 NW 12 19 29.71 1006 1 1 0.00 0.00
10:39 pm 22:39 Cloudy with Snow 30 -1 30 -1 100 100 NNW 15 24 29.70 1006 1 1 0.00 0.00
10:56 pm 22:56 Cloudy with Snow 30 -1.1 30 -1.1 100 100 undefined N/A 29.63 1003 1 1 0.01 0.25
11:07 pm 23:07 Cloudy with Light Snow 30 -1 28 -2 93 93 undefined N/A 29.67 1005 1 1 0.00 0.00
11:24 pm 23:24 Cloudy with Light Snow 30 -1 28 -2 93 93 NW 17 28 29.68 1005 1 2 0.00 0.00
11:40 pm 23:40 Cloudy with Light Snow 30 -1 28 -2 93 93 NW 17 28 29.67 1005 1 1 0.01 0.25
11:56 pm 23:56 Windy with Snow Likely 29 -1.7 28 -2.2 96 96 NW 21 33 29.61 1003 1 1 0.01 0.25

Powered by AerisWeather